WB6DHP Weather Reports


Display with metric or nautical units.
time (UTC)temp
F
wind
direction
speed
MPH
gust
MPH
rain 1hr
in
rain 24hr
in
rain mn
in
humidity
%
barometer
mb
20181020002008 81 355 1.0 3.0 0.00 0.00 0.00 32 1016.1
20181020001008 81 0 3.0 5.0 0.00 0.00 0.00 30 1016.2
20181020000009 81 23 1.0 5.0 0.00 0.00 0.00 33 1016.2
20181019235008 81 328 1.0 5.0 0.00 0.00 0.00 33 1016.2
20181019234009 82 355 2.0 6.0 0.00 0.00 0.00 34 1016.3
20181019233009 82 312 1.0 5.0 0.00 0.00 0.00 33 1016.4
20181019232009 82 26 2.0 5.0 0.00 0.00 0.00 35 1016.5
20181019231008 83 10 2.0 6.0 0.00 0.00 0.00 34 1016.6
20181019230008 83 0 2.0 7.0 0.00 0.00 0.00 32 1016.6
20181019225008 84 333 2.0 5.0 0.00 0.00 0.00 31 1016.6
20181019224008 84 60 3.0 8.0 0.00 0.00 0.00 29 1016.7
20181019223008 84 355 2.0 5.0 0.00 0.00 0.00 31 1016.8
20181019222008 84 56 2.0 5.0 0.00 0.00 0.00 31 1016.9
20181019221008 83 11 1.0 6.0 0.00 0.00 0.00 32 1016.9
20181019220008 83 333 3.0 8.0 0.00 0.00 0.00 31 1017.1
20181019215008 82 355 1.0 6.0 0.00 0.00 0.00 32 1017.1
20181019214008 82 23 3.0 8.0 0.00 0.00 0.00 33 1017.2
20181019213008 82 20 3.0 8.0 0.00 0.00 0.00 33 1017.3
20181019212008 82 355 2.0 8.0 0.00 0.00 0.00 35 1017.3
20181019211008 81 341 3.0 8.0 0.00 0.00 0.00 32 1017.5
20181019210007 81 355 3.0 6.0 0.00 0.00 0.00 35 1017.6
20181019205009 80 16 2.0 7.0 0.00 0.00 0.00 37 1017.8
20181019204008 81 30 3.0 9.0 0.00 0.00 0.00 34 1018.0
20181019203008 80 11 1.0 3.0 0.00 0.00 0.00 38 1018.1
20181019202009 79 72 1.0 5.0 0.00 0.00 0.00 39 1018.4
20181019201009 78 278 2.0 6.0 0.00 0.00 0.00 41 1018.6
20181019200008 77 31 2.0 8.0 0.00 0.00 0.00 42 1018.8
20181019195009 77 101 2.0 3.0 0.00 0.00 0.00 44 1018.9
20181019194008 76 315 2.0 5.0 0.00 0.00 0.00 42 1019.2
20181019193009 76 21 2.0 5.0 0.00 0.00 0.00 45 1019.3
20181019192008 75 339 2.0 6.0 0.00 0.00 0.00 46 1019.5
20181019191008 75 5 2.0 3.0 0.00 0.00 0.00 48 1019.6
20181019190008 74 279 1.0 5.0 0.00 0.00 0.00 49 1019.7
20181019185008 73 292 1.0 5.0 0.00 0.00 0.00 52 1019.8
20181019184008 72 337 1.0 5.0 0.00 0.00 0.00 54 1019.8
20181019183008 71 29 1.0 3.0 0.00 0.00 0.00 55 1019.9
20181019182008 69 12 1.0 3.0 0.00 0.00 0.00 57 1020.1
20181019181009 69 65 2.0 3.0 0.00 0.00 0.00 57 1020.2
20181019180008 68 294 2.0 3.0 0.00 0.00 0.00 58 1020.2
20181019175008 68 76 2.0 3.0 0.00 0.00 0.00 59 1020.3
20181019174009 68 69 2.0 5.0 0.00 0.00 0.00 60 1020.4
20181019173008 67 36 1.0 3.0 0.00 0.00 0.00 62 1020.4
20181019172008 66 55 2.0 3.0 0.00 0.00 0.00 64 1020.4
20181019171008 66 63 3.0 3.0 0.00 0.00 0.00 63 1020.4
20181019170008 65 5 1.0 3.0 0.00 0.00 0.00 65 1020.4
20181019165008 65 36 1.0 3.0 0.00 0.00 0.00 67 1020.5
20181019164008 64 355 0.0 0.0 0.00 0.00 0.00 70 1020.4
20181019163008 62 333 0.0 0.0 0.00 0.00 0.00 73 1020.4
20181019162008 61 333 0.0 0.0 0.00 0.00 0.00 75 1020.4
20181019161008 58 298 0.0 0.0 0.00 0.00 0.00 80 1020.4
20181019160007 55 298 0.0 0.0 0.00 0.00 0.00 85 1020.3
20181019155008 53 5 0.0 0.0 0.00 0.00 0.00 86 1020.2
20181019154008 51 5 0.0 0.0 0.00 0.00 0.00 86 1020.2
20181019153009 50 5 0.0 0.0 0.00 0.00 0.00 86 1020.1
20181019152009 49 5 0.0 0.0 0.00 0.00 0.00 86 1019.9
20181019151008 48 5 0.0 0.0 0.00 0.00 0.00 86 1019.8
20181019150008 48 5 0.0 0.0 0.00 0.00 0.00 86 1019.8
20181019145008 48 5 0.0 0.0 0.00 0.00 0.00 86 1019.7
20181019144008 48 5 0.0 0.0 0.00 0.00 0.00 86 1019.7
20181019143008 48 5 0.0 0.0 0.00 0.00 0.00 86 1019.7
20181019142008 48 5 0.0 0.0 0.00 0.00 0.00 85 1019.7
20181019141009 48 5 0.0 0.0 0.00 0.00 0.00 85 1019.7
20181019140008 48 5 0.0 0.0 0.00 0.00 0.00 86 1019.6
20181019135008 48 5 0.0 0.0 0.00 0.00 0.00 86 1019.5
20181019134008 48 5 0.0 0.0 0.00 0.00 0.00 86 1019.5
20181019133008 48 5 0.0 0.0 0.00 0.00 0.00 86 1019.4
20181019132008 48 5 0.0 0.0 0.00 0.00 0.00 86 1019.3
20181019131008 48 5 0.0 0.0 0.00 0.00 0.00 86 1019.4
20181019130008 48 5 0.0 0.0 0.00 0.00 0.00 86 1019.3
20181019125008 48 5 0.0 0.0 0.00 0.00 0.00 86 1019.2
20181019124008 48 5 0.0 0.0 0.00 0.00 0.00 86 1019.2
20181019123008 48 5 0.0 0.0 0.00 0.00 0.00 86 1019.1
20181019122007 48 5 0.0 0.0 0.00 0.00 0.00 86 1019.0
20181019121008 48 5 0.0 0.0 0.00 0.00 0.00 86 1019.0
20181019120007 49 5 0.0 0.0 0.00 0.00 0.00 86 1018.9
20181019115008 49 5 0.0 0.0 0.00 0.00 0.00 86 1018.8
20181019114008 49 5 0.0 0.0 0.00 0.00 0.00 86 1018.9
20181019113008 49 5 0.0 0.0 0.00 0.00 0.00 86 1018.8
20181019112008 49 5 0.0 0.0 0.00 0.00 0.00 85 1018.7
20181019111008 49 5 0.0 0.0 0.00 0.00 0.00 85 1018.6
20181019110008 49 5 0.0 0.0 0.00 0.00 0.00 84 1018.7
20181019105008 50 5 0.0 0.0 0.00 0.00 0.00 85 1018.8
20181019104007 50 5 0.0 0.0 0.00 0.00 0.00 84 1018.8
20181019103008 50 5 0.0 0.0 0.00 0.00 0.00 84 1018.9
20181019102007 50 5 0.0 0.0 0.00 0.00 0.00 83 1019.0
20181019101007 50 5 0.0 0.0 0.00 0.00 0.00 83 1019.0
20181019100007 51 5 0.0 0.0 0.00 0.00 0.00 83 1019.0
20181019095007 51 5 0.0 0.0 0.00 0.00 0.00 83 1019.0
20181019094008 51 5 0.0 0.0 0.00 0.00 0.00 83 1019.0
20181019093008 51 5 0.0 0.0 0.00 0.00 0.00 82 1019.0
20181019092008 51 5 0.0 0.0 0.00 0.00 0.00 81 1019.0
20181019091007 51 5 0.0 0.0 0.00 0.00 0.00 81 1019.0
20181019090007 51 5 0.0 0.0 0.00 0.00 0.00 80 1019.0
20181019085007 51 5 0.0 0.0 0.00 0.00 0.00 80 1019.0
20181019084007 51 5 0.0 0.0 0.00 0.00 0.00 79 1019.0
20181019083008 51 5 0.0 0.0 0.00 0.00 0.00 78 1019.0
20181019082008 52 5 0.0 0.0 0.00 0.00 0.00 77 1019.0
20181019081007 52 5 0.0 0.0 0.00 0.00 0.00 77 1018.9
20181019080007 52 5 0.0 0.0 0.00 0.00 0.00 76 1018.9
20181019075007 52 5 0.0 0.0 0.00 0.00 0.00 76 1018.9
20181019074008 52 5 0.0 0.0 0.00 0.00 0.00 75 1018.9
20181019073007 52 5 0.0 0.0 0.00 0.00 0.00 75 1018.9
20181019072008 53 5 0.0 0.0 0.00 0.00 0.00 75 1018.9
20181019071008 53 5 0.0 0.0 0.00 0.00 0.00 74 1018.9
20181019070007 53 5 0.0 0.0 0.00 0.00 0.00 74 1019.0
20181019065008 53 5 0.0 0.0 0.00 0.00 0.00 74 1019.0
20181019064008 54 5 0.0 0.0 0.00 0.00 0.00 74 1019.1
20181019063007 54 5 0.0 0.0 0.00 0.00 0.00 74 1019.1
20181019062007 54 5 0.0 0.0 0.00 0.00 0.00 73 1019.2
20181019061007 54 5 0.0 0.0 0.00 0.00 0.00 73 1019.2
20181019060008 55 5 0.0 0.0 0.00 0.00 0.00 73 1019.2
20181019055007 55 5 0.0 0.0 0.00 0.00 0.00 72 1019.2
20181019054008 55 5 0.0 0.0 0.00 0.00 0.00 73 1019.1
20181019053009 55 5 0.0 0.0 0.00 0.00 0.00 74 1019.0
20181019052007 55 5 0.0 0.0 0.00 0.00 0.00 74 1019.0
20181019051007 56 5 0.0 0.0 0.00 0.00 0.00 74 1018.9
20181019050007 56 5 0.0 0.0 0.00 0.00 0.00 74 1018.7
20181019045007 57 5 0.0 0.0 0.00 0.00 0.00 73 1018.8
20181019044008 57 5 0.0 0.0 0.00 0.00 0.00 73 1018.7
20181019043008 58 5 0.0 0.0 0.00 0.00 0.00 74 1018.6
20181019042008 58 5 0.0 0.0 0.00 0.00 0.00 74 1018.6
20181019041007 58 5 0.0 0.0 0.00 0.00 0.00 74 1018.6
20181019040007 59 5 0.0 0.0 0.00 0.00 0.00 74 1018.6
20181019035008 59 5 0.0 0.0 0.00 0.00 0.00 74 1018.6
20181019034008 60 5 0.0 0.0 0.00 0.00 0.00 72 1018.5
20181019033007 61 5 0.0 0.0 0.00 0.00 0.00 72 1018.4
20181019032007 61 5 0.0 0.0 0.00 0.00 0.00 71 1018.3
20181019031007 62 5 0.0 0.0 0.00 0.00 0.00 71 1018.3
20181019030007 62 5 0.0 0.0 0.00 0.00 0.00 70 1018.3
20181019025008 63 5 0.0 0.0 0.00 0.00 0.00 69 1018.1
20181019024008 64 5 0.0 0.0 0.00 0.00 0.00 68 1018.0
20181019023008 64 5 0.0 0.0 0.00 0.00 0.00 66 1017.9
20181019022007 65 5 0.0 0.0 0.00 0.00 0.00 65 1017.7
20181019021007 66 5 0.0 0.0 0.00 0.00 0.00 63 1017.6
20181019020007 67 5 0.0 0.0 0.00 0.00 0.00 61 1017.5
20181019015008 68 5 0.0 0.0 0.00 0.00 0.00 60 1017.5
20181019014008 68 5 0.0 0.0 0.00 0.00 0.00 58 1017.3
20181019013008 69 5 0.0 3.0 0.00 0.00 0.00 57 1017.3
20181019012008 70 333 0.0 3.0 0.00 0.00 0.00 56 1017.2
20181019011008 71 335 2.0 3.0 0.00 0.00 0.00 54 1017.1
20181019010008 73 324 3.0 7.0 0.00 0.00 0.00 52 1017.0
20181019005007 74 342 1.0 6.0 0.00 0.00 0.00 51 1017.0
20181019004008 75 355 1.0 5.0 0.00 0.00 0.00 48 1017.0
20181019003011 76 5 1.0 3.0 0.00 0.00 0.00 45 1016.9